Location: Fort Worth, Tx
(32.7431°N, 97.3695°W)
Time: 19:54:30
(UTC-05:00)

Tiros 1 - Pass Details

Date: 10 October 2024
Orbit: 622 x 654 km, 48.4° (Epoch: 05 November)

Event Time Altitude Azimuth Distance (km) Brightness Sun altitude
Rises 13:27:31 0° 317° (NW) 2,910 10.1 48.6°
Reaches altitude 10° 13:30:11 10° 330° (NNW) 1,996 9.4 48.7°
Maximum altitude 13:33:59 25° 27° (NNE) 1,256 8.6 49.0°
Drops below altitude 10° 13:37:46 10° 83° (E) 1,983 9.8 49.2°
Sets 13:40:25 0° 96° (E) 2,887 10.7 49.3°
